Time,TemperatureF,DewpointF,PressureIn,WindDirection,WindDirectionDegrees,WindSpeedMPH,WindSpeedGustMPH,Humidity,HourlyPrecipIn,Conditions,Clouds,dailyrainin,SoftwareType,DateUTC
2013-02-02 00:01:00,24.5,16.4,30.35,South,173,0.0,0.0,71,0.00,,,0.00,Wunderground v.1.15,2013-02-02 06:01:00,
2013-02-02 00:07:00,24.4,16.3,30.35,SSE,154,0.0,1.0,71,0.00,,,0.00,Wunderground v.1.15,2013-02-02 06:07:00,
2013-02-02 00:12:00,24.5,16.8,30.34,SSW,205,0.0,2.0,72,0.00,,,0.00,Wunderground v.1.15,2013-02-02 06:12:00,
2013-02-02 00:18:00,24.6,16.9,30.34,SSW,210,2.0,2.0,72,0.00,,,0.00,Wunderground v.1.15,2013-02-02 06:18:00,
2013-02-02 00:24:00,24.7,17.0,30.34,SW,228,0.0,1.0,72,0.00,,,0.00,Wunderground v.1.15,2013-02-02 06:24:00,
2013-02-02 00:30:00,24.8,17.4,30.34,SSW,207,0.0,0.0,73,0.00,,,0.00,Wunderground v.1.15,2013-02-02 06:30:00,
2013-02-02 00:35:00,24.8,17.4,30.33,SE,146,0.0,0.0,73,0.00,,,0.00,Wunderground v.1.15,2013-02-02 06:35:00,
2013-02-02 00:41:00,24.9,17.8,30.33,SSW,204,0.0,0.0,74,0.00,,,0.00,Wunderground v.1.15,2013-02-02 06:41:00,
2013-02-02 00:46:00,25.1,17.3,30.33,SW,226,0.0,1.0,72,0.00,,,0.00,Wunderground v.1.15,2013-02-02 06:46:00,
2013-02-02 00:52:00,25.2,17.4,30.33,SW,218,0.0,1.0,72,0.00,,,0.00,Wunderground v.1.15,2013-02-02 06:52:00,
2013-02-02 00:58:00,25.3,17.2,30.33,SSW,205,0.0,1.0,71,0.00,,,0.00,Wunderground v.1.15,2013-02-02 06:58:00,
2013-02-02 01:03:00,25.5,17.4,30.33,SW,217,0.0,1.0,71,0.00,,,0.00,Wunderground v.1.15,2013-02-02 07:03:00,
2013-02-02 01:08:00,25.5,17.4,30.33,SW,214,0.0,1.0,71,0.00,,,0.00,Wunderground v.1.15,2013-02-02 07:08:00,
2013-02-02 01:14:00,25.6,17.5,30.34,WSW,255,0.0,1.0,71,0.00,,,0.00,Wunderground v.1.15,2013-02-02 07:14:00,
2013-02-02 01:20:00,25.7,17.3,30.34,NW,304,0.0,0.0,70,0.00,,,0.00,Wunderground v.1.15,2013-02-02 07:20:00,
2013-02-02 01:26:00,25.8,17.0,30.33,SW,218,0.0,1.0,69,0.00,,,0.00,Wunderground v.1.15,2013-02-02 07:26:00,
2013-02-02 01:31:00,25.8,17.4,30.33,WSW,255,0.0,0.0,70,0.00,,,0.00,Wunderground v.1.15,2013-02-02 07:31:00,
2013-02-02 01:37:00,25.8,17.4,30.33,SSE,158,0.0,1.0,70,0.00,,,0.00,Wunderground v.1.15,2013-02-02 07:37:00,
2013-02-02 01:43:00,25.7,17.3,30.33,SSE,157,0.0,0.0,70,0.00,,,0.00,Wunderground v.1.15,2013-02-02 07:43:00,
2013-02-02 01:49:00,25.6,17.2,30.33,SSE,158,0.0,0.0,70,0.00,,,0.00,Wunderground v.1.15,2013-02-02 07:49:00,
2013-02-02 01:54:00,25.5,17.4,30.33,SSE,156,0.0,0.0,71,0.00,,,0.00,Wunderground v.1.15,2013-02-02 07:54:00,
2013-02-02 02:00:00,25.5,17.4,30.33,SSE,156,0.0,0.0,71,0.00,,,0.00,Wunderground v.1.15,2013-02-02 08:00:00,
2013-02-02 02:05:00,25.5,17.7,30.33,SSE,157,0.0,0.0,72,0.00,,,0.00,Wunderground v.1.15,2013-02-02 08:05:00,
2013-02-02 02:10:00,25.4,17.6,30.33,SSE,157,0.0,0.0,72,0.00,,,0.00,Wunderground v.1.15,2013-02-02 08:10:00,
2013-02-02 02:15:00,25.5,17.7,30.33,SW,217,0.0,1.0,72,0.00,,,0.00,Wunderground v.1.15,2013-02-02 08:15:00,
2013-02-02 02:20:00,25.5,17.7,30.33,SW,235,0.0,1.0,72,0.00,,,0.00,Wunderground v.1.15,2013-02-02 08:20:00,
2013-02-02 02:25:00,25.6,17.8,30.33,SSW,208,0.0,1.0,72,0.00,,,0.00,Wunderground v.1.15,2013-02-02 08:25:00,
2013-02-02 02:30:00,25.7,17.6,30.32,SSW,207,1.0,1.0,71,0.00,,,0.00,Wunderground v.1.15,2013-02-02 08:30:00,
2013-02-02 02:35:00,25.8,18.0,30.32,SE,141,1.0,1.0,72,0.00,,,0.00,Wunderground v.1.15,2013-02-02 08:35:00,
2013-02-02 02:40:00,25.8,17.7,30.31,SSW,210,2.0,2.0,71,0.00,,,0.00,Wunderground v.1.15,2013-02-02 08:40:00,
2013-02-02 02:45:00,25.9,17.8,30.30,SSE,167,0.0,3.0,71,0.00,,,0.00,Wunderground v.1.15,2013-02-02 08:45:00,
2013-02-02 02:50:00,26.1,18.0,30.30,SSE,150,1.0,2.0,71,0.00,,,0.00,Wunderground v.1.15,2013-02-02 08:50:00,
2013-02-02 02:56:00,26.2,17.7,30.30,SSE,150,3.0,4.0,70,0.00,,,0.00,Wunderground v.1.15,2013-02-02 08:56:00,
2013-02-02 03:01:00,26.3,17.5,30.29,SSW,205,1.0,2.0,69,0.00,,,0.00,Wunderground v.1.15,2013-02-02 09:01:00,
2013-02-02 03:06:00,26.4,17.3,30.30,SW,219,2.0,2.0,68,0.00,,,0.00,Wunderground v.1.15,2013-02-02 09:06:00,
2013-02-02 03:11:00,26.6,17.5,30.29,SSW,200,0.0,2.0,68,0.00,,,0.00,Wunderground v.1.15,2013-02-02 09:11:00,
2013-02-02 03:16:00,26.6,17.5,30.30,SSW,201,0.0,2.0,68,0.00,,,0.00,Wunderground v.1.15,2013-02-02 09:16:00,
2013-02-02 03:21:00,26.7,17.6,30.30,NW,307,0.0,1.0,68,0.00,,,0.00,Wunderground v.1.15,2013-02-02 09:21:00,
2013-02-02 03:26:00,26.7,17.6,30.29,SSE,158,1.0,4.0,68,0.00,,,0.00,Wunderground v.1.15,2013-02-02 09:26:00,
2013-02-02 03:31:00,26.7,17.6,30.28,SSW,210,0.0,1.0,68,0.00,,,0.00,Wunderground v.1.15,2013-02-02 09:31:00,
2013-02-02 03:36:00,26.7,17.6,30.28,SSE,165,1.0,2.0,68,0.00,,,0.00,Wunderground v.1.15,2013-02-02 09:36:00,
2013-02-02 03:41:00,26.8,17.3,30.28,SSE,162,0.0,3.0,67,0.00,,,0.00,Wunderground v.1.15,2013-02-02 09:41:00,
2013-02-02 03:46:00,26.9,17.4,30.27,SSE,158,2.0,3.0,67,0.00,,,0.00,Wunderground v.1.15,2013-02-02 09:46:00,
2013-02-02 03:51:00,26.9,17.4,30.27,South,169,0.0,3.0,67,0.00,,,0.00,Wunderground v.1.15,2013-02-02 09:51:00,
2013-02-02 03:56:00,27.0,17.5,30.27,SSE,167,3.0,3.0,67,0.00,,,0.00,Wunderground v.1.15,2013-02-02 09:56:00,
2013-02-02 04:01:00,27.1,17.6,30.28,SW,232,2.0,3.0,67,0.00,,,0.00,Wunderground v.1.15,2013-02-02 10:01:00,
2013-02-02 04:06:00,27.2,17.3,30.28,SW,224,0.0,4.0,66,0.00,,,0.00,Wunderground v.1.15,2013-02-02 10:06:00,
2013-02-02 04:11:00,27.3,17.8,30.28,South,188,1.0,3.0,67,0.00,,,0.00,Wunderground v.1.15,2013-02-02 10:11:00,
2013-02-02 04:16:00,27.3,17.8,30.28,SW,232,0.0,3.0,67,0.00,,,0.00,Wunderground v.1.15,2013-02-02 10:16:00,
2013-02-02 04:21:00,27.3,17.4,30.28,West,281,0.0,2.0,66,0.00,,,0.00,Wunderground v.1.15,2013-02-02 10:21:00,
2013-02-02 04:26:00,27.4,17.5,30.27,WSW,248,0.0,2.0,66,0.00,,,0.00,Wunderground v.1.15,2013-02-02 10:26:00,
2013-02-02 04:31:00,27.4,17.5,30.27,SSW,205,0.0,1.0,66,0.00,,,0.00,Wunderground v.1.15,2013-02-02 10:31:00,
2013-02-02 04:36:00,27.4,17.9,30.27,SW,214,0.0,2.0,67,0.00,,,0.00,Wunderground v.1.15,2013-02-02 10:36:00,
2013-02-02 04:41:00,27.5,18.0,30.27,SW,217,0.0,2.0,67,0.00,,,0.00,Wunderground v.1.15,2013-02-02 10:41:00,
2013-02-02 04:46:00,27.5,18.0,30.26,SSE,158,1.0,2.0,67,0.00,,,0.00,Wunderground v.1.15,2013-02-02 10:46:00,
2013-02-02 04:51:00,27.6,18.1,30.26,SW,231,2.0,3.0,67,0.00,,,0.00,Wunderground v.1.15,2013-02-02 10:51:00,
2013-02-02 04:56:00,27.7,18.2,30.25,SE,124,0.0,3.0,67,0.00,,,0.00,Wunderground v.1.15,2013-02-02 10:56:00,
2013-02-02 05:01:00,27.7,18.2,30.26,WSW,250,2.0,3.0,67,0.00,,,0.00,Wunderground v.1.15,2013-02-02 11:01:00,
2013-02-02 05:06:00,27.8,18.6,30.26,SSW,200,1.0,3.0,68,0.00,,,0.00,Wunderground v.1.15,2013-02-02 11:06:00,
2013-02-02 05:11:00,28.0,18.1,30.26,South,187,2.0,3.0,66,0.00,,,0.00,Wunderground v.1.15,2013-02-02 11:11:00,
2013-02-02 05:16:00,28.0,18.1,30.26,WSW,255,2.0,6.0,66,0.00,,,0.00,Wunderground v.1.15,2013-02-02 11:16:00,
2013-02-02 05:21:00,28.1,18.2,30.26,SW,222,1.0,5.0,66,0.00,,,0.00,Wunderground v.1.15,2013-02-02 11:21:00,
2013-02-02 05:26:00,28.1,18.2,30.25,SW,215,3.0,5.0,66,0.00,,,0.00,Wunderground v.1.15,2013-02-02 11:26:00,
2013-02-02 05:31:00,28.2,18.3,30.23,South,177,2.0,6.0,66,0.00,,,0.00,Wunderground v.1.15,2013-02-02 11:31:00,
2013-02-02 05:36:00,28.2,17.9,30.23,SSE,160,4.0,6.0,65,0.00,,,0.00,Wunderground v.1.15,2013-02-02 11:36:00,
2013-02-02 05:41:00,28.3,18.4,30.23,SSW,211,3.0,5.0,66,0.00,,,0.00,Wunderground v.1.15,2013-02-02 11:41:00,
2013-02-02 05:46:00,28.4,18.1,30.22,SSE,155,1.0,10.0,65,0.00,,,0.00,Wunderground v.1.15,2013-02-02 11:46:00,
2013-02-02 05:51:00,28.5,18.2,30.22,SW,236,6.0,8.0,65,0.00,,,0.00,Wunderground v.1.15,2013-02-02 11:51:00,
2013-02-02 05:56:00,28.7,18.1,30.22,SW,217,7.0,11.0,64,0.00,,,0.00,Wunderground v.1.15,2013-02-02 11:56:00,
2013-02-02 06:01:00,28.9,18.2,30.22,WSW,242,3.0,9.0,64,0.00,,,0.00,Wunderground v.1.15,2013-02-02 12:01:00,
2013-02-02 06:06:00,29.0,18.0,30.23,WSW,255,3.0,9.0,63,0.00,,,0.00,Wunderground v.1.15,2013-02-02 12:06:00,
2013-02-02 06:11:00,29.2,17.8,30.23,WSW,253,1.0,4.0,62,0.00,,,0.00,Wunderground v.1.15,2013-02-02 12:11:00,
2013-02-02 06:16:00,29.3,17.5,30.23,WSW,248,1.0,6.0,61,0.00,,,0.00,Wunderground v.1.15,2013-02-02 12:16:00,
2013-02-02 06:21:00,29.4,17.6,30.23,West,276,0.0,3.0,61,0.00,,,0.00,Wunderground v.1.15,2013-02-02 12:21:00,
2013-02-02 06:26:00,29.3,17.5,30.23,WSW,253,3.0,4.0,61,0.00,,,0.00,Wunderground v.1.15,2013-02-02 12:26:00,
2013-02-02 06:31:00,29.2,17.4,30.22,West,259,3.0,3.0,61,0.00,,,0.00,Wunderground v.1.15,2013-02-02 12:31:00,
2013-02-02 06:36:00,29.2,17.4,30.23,WSW,247,1.0,4.0,61,0.00,,,0.00,Wunderground v.1.15,2013-02-02 12:36:00,
2013-02-02 06:41:00,29.0,17.6,30.23,WSW,248,0.0,2.0,62,0.00,,,0.00,Wunderground v.1.15,2013-02-02 12:41:00,
2013-02-02 06:46:00,28.8,17.4,30.23,WSW,250,1.0,2.0,62,0.00,,,0.00,Wunderground v.1.15,2013-02-02 12:46:00,
2013-02-02 06:51:00,28.6,17.6,30.22,WSW,240,0.0,0.0,63,0.00,,,0.00,Wunderground v.1.15,2013-02-02 12:51:00,
2013-02-02 06:56:00,28.3,17.3,30.22,WSW,240,0.0,1.0,63,0.00,,,0.00,Wunderground v.1.15,2013-02-02 12:56:00,
2013-02-02 07:01:00,28.1,17.1,30.22,SW,214,0.0,0.0,63,0.00,,,0.00,Wunderground v.1.15,2013-02-02 13:01:00,
2013-02-02 07:06:00,27.8,17.2,30.22,SE,131,0.0,1.0,64,0.00,,,0.00,Wunderground v.1.15,2013-02-02 13:06:00,
2013-02-02 07:11:00,27.6,17.0,30.22,SE,131,0.0,0.0,64,0.00,,,0.00,Wunderground v.1.15,2013-02-02 13:11:00,
2013-02-02 07:16:00,27.6,17.4,30.22,SE,131,0.0,1.0,65,0.00,,,0.00,Wunderground v.1.15,2013-02-02 13:16:00,
2013-02-02 07:22:00,27.3,17.4,30.22,SSE,148,0.0,0.0,66,0.00,,,0.00,Wunderground v.1.15,2013-02-02 13:22:00,
2013-02-02 07:27:00,27.1,17.2,30.22,SW,222,1.0,1.0,66,0.00,,,0.00,Wunderground v.1.15,2013-02-02 13:27:00,
2013-02-02 07:32:00,27.3,17.4,30.22,SW,221,1.0,2.0,66,0.00,,,0.00,Wunderground v.1.15,2013-02-02 13:32:00,
2013-02-02 07:37:00,27.7,17.5,30.21,SW,219,1.0,2.0,65,0.00,,,0.00,Wunderground v.1.15,2013-02-02 13:37:00,
2013-02-02 07:42:00,28.3,17.7,30.21,SW,229,0.0,1.0,64,0.00,,,0.00,Wunderground v.1.15,2013-02-02 13:42:00,
2013-02-02 07:47:00,28.7,18.1,30.21,SW,234,5.0,5.0,64,0.00,,,0.00,Wunderground v.1.15,2013-02-02 13:47:00,
2013-02-02 07:51:00,29.3,18.3,30.21,SW,231,2.0,3.0,63,0.00,,,0.00,Wunderground v.1.15,2013-02-02 13:51:00,
2013-02-02 07:56:00,29.9,18.5,30.21,SW,236,4.0,4.0,62,0.00,,,0.00,Wunderground v.1.15,2013-02-02 13:56:00,
2013-02-02 08:01:00,30.4,18.9,30.21,WSW,239,5.0,5.0,62,0.00,,,0.00,Wunderground v.1.15,2013-02-02 14:01:00,
2013-02-02 08:06:00,31.0,19.1,30.21,SW,233,2.0,6.0,61,0.00,,,0.00,Wunderground v.1.15,2013-02-02 14:06:00,
2013-02-02 08:12:00,31.2,19.7,30.21,WSW,248,2.0,5.0,62,0.00,,,0.00,Wunderground v.1.15,2013-02-02 14:12:00,
2013-02-02 08:17:00,31.5,20.3,30.21,SW,233,7.0,11.0,63,0.00,,,0.00,Wunderground v.1.15,2013-02-02 14:17:00,
2013-02-02 08:22:00,31.9,20.3,30.21,SW,222,4.0,8.0,62,0.00,,,0.00,Wunderground v.1.15,2013-02-02 14:22:00,
2013-02-02 08:26:00,32.1,20.9,30.21,WSW,246,3.0,10.0,63,0.00,,,0.00,Wunderground v.1.15,2013-02-02 14:26:00,
2013-02-02 08:32:00,32.0,20.8,30.21,SW,233,5.0,8.0,63,0.00,,,0.00,Wunderground v.1.15,2013-02-02 14:32:00,
2013-02-02 08:37:00,32.1,21.3,30.21,West,267,3.0,8.0,64,0.00,,,0.00,Wunderground v.1.15,2013-02-02 14:37:00,
2013-02-02 08:42:00,32.2,21.4,30.21,WSW,240,1.0,8.0,64,0.00,,,0.00,Wunderground v.1.15,2013-02-02 14:42:00,
2013-02-02 08:47:00,32.4,21.6,30.21,West,269,2.0,8.0,64,0.00,,,0.00,Wunderground v.1.15,2013-02-02 14:47:00,
2013-02-02 08:52:00,32.5,21.7,30.21,SW,233,2.0,8.0,64,0.00,,,0.00,Wunderground v.1.15,2013-02-02 14:52:00,
2013-02-02 08:57:00,32.7,22.2,30.20,NW,306,1.0,8.0,65,0.00,,,0.00,Wunderground v.1.15,2013-02-02 14:57:00,
2013-02-02 09:02:00,33.0,22.1,30.20,SW,232,4.0,6.0,64,0.00,,,0.00,Wunderground v.1.15,2013-02-02 15:02:00,
2013-02-02 09:07:00,33.2,22.7,30.20,West,280,2.0,6.0,65,0.00,,,0.00,Wunderground v.1.15,2013-02-02 15:07:00,
2013-02-02 09:12:00,33.5,23.0,30.20,West,266,2.0,6.0,65,0.00,,,0.00,Wunderground v.1.15,2013-02-02 15:12:00,
2013-02-02 09:17:00,33.7,22.8,30.19,WNW,293,3.0,8.0,64,0.00,,,0.00,Wunderground v.1.15,2013-02-02 15:17:00,
2013-02-02 09:22:00,34.0,23.5,30.19,WSW,242,1.0,5.0,65,0.00,,,0.00,Wunderground v.1.15,2013-02-02 15:22:00,
2013-02-02 09:27:00,34.4,23.5,30.19,West,259,4.0,6.0,64,0.00,,,0.00,Wunderground v.1.15,2013-02-02 15:27:00,
2013-02-02 09:32:00,34.9,23.6,30.18,WSW,240,8.0,8.0,63,0.00,,,0.00,Wunderground v.1.15,2013-02-02 15:32:00,
2013-02-02 09:37:00,35.2,23.5,30.18,SSW,212,6.0,10.0,62,0.00,,,0.00,Wunderground v.1.15,2013-02-02 15:37:00,
2013-02-02 09:42:00,35.5,23.8,30.19,WSW,257,2.0,8.0,62,0.00,,,0.00,Wunderground v.1.15,2013-02-02 15:42:00,
2013-02-02 09:47:00,35.8,23.7,30.18,WSW,240,7.0,9.0,61,0.00,,,0.00,Wunderground v.1.15,2013-02-02 15:47:00,
2013-02-02 09:52:00,35.9,23.7,30.18,WSW,240,6.0,9.0,61,0.00,,,0.00,Wunderground v.1.15,2013-02-02 15:52:00,
2013-02-02 09:57:00,36.3,23.7,30.18,West,274,5.0,9.0,60,0.00,,,0.00,Wunderground v.1.15,2013-02-02 15:57:00,
2013-02-02 10:02:00,36.4,23.8,30.18,WSW,252,1.0,11.0,60,0.00,,,0.00,Wunderground v.1.15,2013-02-02 16:02:00,
2013-02-02 10:07:00,36.7,23.3,30.18,West,266,10.0,11.0,58,0.00,,,0.00,Wunderground v.1.15,2013-02-02 16:07:00,
2013-02-02 10:12:00,37.2,24.2,30.19,WSW,237,4.0,7.0,59,0.00,,,0.00,Wunderground v.1.15,2013-02-02 16:12:00,
2013-02-02 10:17:00,37.5,23.6,30.18,West,259,3.0,11.0,57,0.00,,,0.00,Wunderground v.1.15,2013-02-02 16:17:00,
2013-02-02 10:22:00,37.6,24.1,30.18,WNW,291,6.0,12.0,58,0.00,,,0.00,Wunderground v.1.15,2013-02-02 16:22:00,
2013-02-02 10:27:00,38.3,24.0,30.18,West,261,7.0,12.0,56,0.00,,,0.00,Wunderground v.1.15,2013-02-02 16:27:00,
2013-02-02 10:32:00,38.5,24.1,30.18,WNW,284,5.0,11.0,56,0.00,,,0.00,Wunderground v.1.15,2013-02-02 16:32:00,
2013-02-02 10:37:00,38.7,23.9,30.18,WNW,302,6.0,11.0,55,0.00,,,0.00,Wunderground v.1.15,2013-02-02 16:37:00,
2013-02-02 10:42:00,39.0,23.7,30.18,West,276,6.0,13.0,54,0.00,,,0.00,Wunderground v.1.15,2013-02-02 16:42:00,
2013-02-02 10:47:00,39.2,24.4,30.18,WNW,301,10.0,13.0,55,0.00,,,0.00,Wunderground v.1.15,2013-02-02 16:47:00,
2013-02-02 10:52:00,39.1,24.3,30.18,WNW,283,6.0,10.0,55,0.00,,,0.00,Wunderground v.1.15,2013-02-02 16:52:00,
2013-02-02 10:57:00,39.2,24.4,30.18,WNW,301,10.0,11.0,55,0.00,,,0.00,Wunderground v.1.15,2013-02-02 16:57:00,
2013-02-02 11:02:00,39.5,24.7,30.17,West,281,7.0,13.0,55,0.00,,,0.00,Wunderground v.1.15,2013-02-02 17:02:00,
2013-02-02 11:07:00,39.6,23.9,30.17,WNW,286,5.0,14.0,53,0.00,,,0.00,Wunderground v.1.15,2013-02-02 17:07:00,
2013-02-02 11:12:00,39.7,24.0,30.17,West,280,7.0,11.0,53,0.00,,,0.00,Wunderground v.1.15,2013-02-02 17:12:00,
2013-02-02 11:17:00,39.4,24.1,30.17,WSW,253,7.0,13.0,54,0.00,,,0.00,Wunderground v.1.15,2013-02-02 17:17:00,
2013-02-02 11:22:00,39.3,24.5,30.17,WNW,298,8.0,12.0,55,0.00,,,0.00,Wunderground v.1.15,2013-02-02 17:22:00,
2013-02-02 11:27:00,39.2,24.4,30.17,WNW,286,7.0,13.0,55,0.00,,,0.00,Wunderground v.1.15,2013-02-02 17:27:00,
2013-02-02 11:32:00,38.9,24.1,30.17,West,268,6.0,12.0,55,0.00,,,0.00,Wunderground v.1.15,2013-02-02 17:32:00,
2013-02-02 11:37:00,38.8,24.0,30.17,WNW,292,7.0,12.0,55,0.00,,,0.00,Wunderground v.1.15,2013-02-02 17:37:00,
2013-02-02 11:42:00,38.8,24.0,30.17,West,274,4.0,9.0,55,0.00,,,0.00,Wunderground v.1.15,2013-02-02 17:42:00,
2013-02-02 11:47:00,38.7,23.9,30.16,NW,304,6.0,13.0,55,0.00,,,0.00,Wunderground v.1.15,2013-02-02 17:47:00,
2013-02-02 11:52:00,38.5,24.1,30.16,WNW,302,6.0,12.0,56,0.00,,,0.00,Wunderground v.1.15,2013-02-02 17:52:00,
2013-02-02 11:57:00,38.4,24.1,30.16,West,278,3.0,13.0,56,0.00,,,0.00,Wunderground v.1.15,2013-02-02 17:57:00,
2013-02-02 12:02:00,38.4,24.5,30.16,WSW,250,7.0,9.0,57,0.00,,,0.00,Wunderground v.1.15,2013-02-02 18:02:00,
2013-02-02 12:07:00,38.4,24.5,30.16,WNW,291,7.0,11.0,57,0.00,,,0.00,Wunderground v.1.15,2013-02-02 18:07:00,
2013-02-02 12:12:00,38.4,24.5,30.15,WNW,300,7.0,11.0,57,0.00,,,0.00,Wunderground v.1.15,2013-02-02 18:12:00,
2013-02-02 12:17:00,38.2,25.5,30.15,WNW,291,4.0,11.0,60,0.00,,,0.00,Wunderground v.1.15,2013-02-02 18:17:00,
2013-02-02 12:23:00,37.9,27.2,30.15,West,274,7.0,14.0,65,0.00,,,0.00,Wunderground v.1.15,2013-02-02 18:23:00,
2013-02-02 12:28:00,37.3,27.7,30.15,West,260,6.0,14.0,68,0.00,,,0.00,Wunderground v.1.15,2013-02-02 18:28:00,
2013-02-02 12:33:00,36.9,28.4,30.14,West,281,4.0,10.0,71,0.00,,,0.00,Wunderground v.1.15,2013-02-02 18:33:00,
2013-02-02 12:38:00,36.9,28.4,30.14,West,276,9.0,12.0,71,0.00,,,0.00,Wunderground v.1.15,2013-02-02 18:38:00,
2013-02-02 12:43:00,37.2,28.7,30.13,West,274,4.0,6.0,71,0.00,,,0.00,Wunderground v.1.15,2013-02-02 18:43:00,
2013-02-02 12:48:00,37.6,28.3,30.12,West,274,3.0,8.0,69,0.00,,,0.00,Wunderground v.1.15,2013-02-02 18:48:00,
2013-02-02 12:53:00,37.9,27.5,30.13,West,264,5.0,10.0,66,0.00,,,0.00,Wunderground v.1.15,2013-02-02 18:53:00,
2013-02-02 12:58:00,38.0,27.6,30.12,West,279,5.0,10.0,66,0.00,,,0.00,Wunderground v.1.15,2013-02-02 18:58:00,
2013-02-02 13:03:00,38.0,27.3,30.12,West,262,8.0,9.0,65,0.00,,,0.00,Wunderground v.1.15,2013-02-02 19:03:00,
2013-02-02 13:08:00,38.0,27.3,30.12,West,264,2.0,9.0,65,0.00,,,0.00,Wunderground v.1.15,2013-02-02 19:08:00,
2013-02-02 13:13:00,38.1,27.7,30.11,West,262,5.0,8.0,66,0.00,,,0.00,Wunderground v.1.15,2013-02-02 19:13:00,
2013-02-02 13:18:00,38.4,28.0,30.11,West,274,7.0,8.0,66,0.00,,,0.00,Wunderground v.1.15,2013-02-02 19:18:00,
2013-02-02 13:23:00,38.5,28.1,30.11,WSW,255,5.0,12.0,66,0.00,,,0.00,Wunderground v.1.15,2013-02-02 19:23:00,
2013-02-02 13:28:00,38.4,28.4,30.11,WNW,288,8.0,13.0,67,0.00,,,0.00,Wunderground v.1.15,2013-02-02 19:28:00,
2013-02-02 13:33:00,38.4,28.8,30.11,WNW,300,9.0,15.0,68,0.00,,,0.00,Wunderground v.1.15,2013-02-02 19:33:00,
2013-02-02 13:38:00,38.2,28.6,30.12,WNW,290,8.0,15.0,68,0.00,,,0.00,Wunderground v.1.15,2013-02-02 19:38:00,
2013-02-02 13:43:00,37.7,29.5,30.11,NW,305,7.0,15.0,72,0.00,,,0.00,Wunderground v.1.15,2013-02-02 19:43:00,
2013-02-02 13:48:00,37.8,29.6,30.11,NW,316,8.0,17.0,72,0.00,,,0.00,Wunderground v.1.15,2013-02-02 19:48:00,
2013-02-02 13:53:00,38.1,29.9,30.11,NW,316,8.0,12.0,72,0.00,,,0.00,Wunderground v.1.15,2013-02-02 19:53:00,
2013-02-02 13:58:00,38.4,29.8,30.11,NW,309,10.0,15.0,71,0.00,,,0.00,Wunderground v.1.15,2013-02-02 19:58:00,
2013-02-02 14:03:00,38.8,30.5,30.11,WNW,301,5.0,11.0,72,0.00,,,0.00,Wunderground v.1.15,2013-02-02 20:03:00,
2013-02-02 14:08:00,39.5,31.2,30.11,WNW,285,3.0,11.0,72,0.00,,,0.00,Wunderground v.1.15,2013-02-02 20:08:00,
2013-02-02 14:13:00,39.9,31.6,30.11,WNW,283,7.0,14.0,72,0.00,,,0.00,Wunderground v.1.15,2013-02-02 20:13:00,
2013-02-02 14:18:00,39.5,31.2,30.11,SW,236,6.0,14.0,72,0.00,,,0.00,Wunderground v.1.15,2013-02-02 20:18:00,
2013-02-02 14:23:00,39.8,31.5,30.12,WNW,301,7.0,9.0,72,0.00,,,0.00,Wunderground v.1.15,2013-02-02 20:23:00,
2013-02-02 14:28:00,39.8,31.2,30.12,WNW,287,7.0,13.0,71,0.00,,,0.00,Wunderground v.1.15,2013-02-02 20:28:00,
2013-02-02 14:33:00,39.8,31.2,30.12,WNW,302,6.0,10.0,71,0.00,,,0.00,Wunderground v.1.15,2013-02-02 20:33:00,
2013-02-02 14:38:00,40.1,31.1,30.11,West,269,5.0,14.0,70,0.00,,,0.00,Wunderground v.1.15,2013-02-02 20:38:00,
2013-02-02 14:43:00,39.7,30.4,30.11,WNW,285,7.0,11.0,69,0.00,,,0.00,Wunderground v.1.15,2013-02-02 20:43:00,
2013-02-02 14:48:00,39.5,30.2,30.12,NW,316,2.0,11.0,69,0.00,,,0.00,Wunderground v.1.15,2013-02-02 20:48:00,
2013-02-02 14:53:00,39.9,30.9,30.12,NW,321,5.0,7.0,70,0.00,,,0.00,Wunderground v.1.15,2013-02-02 20:53:00,
2013-02-02 14:58:00,40.3,30.2,30.12,NW,321,12.0,13.0,67,0.00,,,0.00,Wunderground v.1.15,2013-02-02 20:58:00,
2013-02-02 15:03:00,40.4,30.7,30.12,NW,307,6.0,10.0,68,0.00,,,0.00,Wunderground v.1.15,2013-02-02 21:03:00,
2013-02-02 15:08:00,40.6,30.1,30.11,WNW,287,5.0,11.0,66,0.00,,,0.00,Wunderground v.1.15,2013-02-02 21:08:00,
2013-02-02 15:13:00,40.8,30.3,30.12,NW,305,8.0,10.0,66,0.00,,,0.00,Wunderground v.1.15,2013-02-02 21:13:00,
2013-02-02 15:18:00,40.9,30.0,30.11,NNW,333,7.0,10.0,65,0.00,,,0.00,Wunderground v.1.15,2013-02-02 21:18:00,
2013-02-02 15:23:00,41.1,29.8,30.11,NW,325,7.0,13.0,64,0.00,,,0.00,Wunderground v.1.15,2013-02-02 21:23:00,
2013-02-02 15:28:00,41.0,29.7,30.12,NW,309,9.0,13.0,64,0.00,,,0.00,Wunderground v.1.15,2013-02-02 21:28:00,
2013-02-02 15:33:00,41.1,29.8,30.11,WNW,298,5.0,8.0,64,0.00,,,0.00,Wunderground v.1.15,2013-02-02 21:33:00,
2013-02-02 15:38:00,41.2,28.8,30.11,NW,317,6.0,11.0,61,0.00,,,0.00,Wunderground v.1.15,2013-02-02 21:38:00,
2013-02-02 15:43:00,41.2,29.2,30.12,NW,307,10.0,12.0,62,0.00,,,0.00,Wunderground v.1.15,2013-02-02 21:43:00,
2013-02-02 15:48:00,41.2,29.2,30.12,WNW,297,6.0,14.0,62,0.00,,,0.00,Wunderground v.1.15,2013-02-02 21:48:00,
2013-02-02 15:53:00,41.3,29.6,30.12,NW,323,6.0,9.0,63,0.00,,,0.00,Wunderground v.1.15,2013-02-02 21:53:00,
2013-02-02 15:58:00,41.1,29.5,30.12,WNW,301,6.0,13.0,63,0.00,,,0.00,Wunderground v.1.15,2013-02-02 21:58:00,
2013-02-02 16:03:00,40.9,29.3,30.12,NW,308,7.0,9.0,63,0.00,,,0.00,Wunderground v.1.15,2013-02-02 22:03:00,
2013-02-02 16:08:00,40.8,29.6,30.12,WNW,291,6.0,9.0,64,0.00,,,0.00,Wunderground v.1.15,2013-02-02 22:08:00,
2013-02-02 16:13:00,40.6,29.7,30.12,NW,307,7.0,8.0,65,0.00,,,0.00,Wunderground v.1.15,2013-02-02 22:13:00,
2013-02-02 16:18:00,40.7,29.5,30.12,NW,311,6.0,9.0,64,0.00,,,0.00,Wunderground v.1.15,2013-02-02 22:18:00,
2013-02-02 16:23:00,40.8,29.6,30.12,NW,311,4.0,7.0,64,0.00,,,0.00,Wunderground v.1.15,2013-02-02 22:23:00,
2013-02-02 16:28:00,40.7,29.1,30.12,WNW,302,4.0,10.0,63,0.00,,,0.00,Wunderground v.1.15,2013-02-02 22:28:00,
2013-02-02 16:33:00,40.7,29.5,30.12,WNW,294,3.0,6.0,64,0.00,,,0.00,Wunderground v.1.15,2013-02-02 22:33:00,
2013-02-02 16:38:00,40.6,29.4,30.12,WNW,290,1.0,8.0,64,0.00,,,0.00,Wunderground v.1.15,2013-02-02 22:38:00,
2013-02-02 16:43:00,40.3,29.5,30.12,WNW,293,2.0,4.0,65,0.00,,,0.00,Wunderground v.1.15,2013-02-02 22:43:00,
2013-02-02 16:48:00,39.9,29.5,30.12,WNW,290,5.0,5.0,66,0.00,,,0.00,Wunderground v.1.15,2013-02-02 22:48:00,
2013-02-02 16:53:00,39.7,29.3,30.13,WNW,285,2.0,2.0,66,0.00,,,0.00,Wunderground v.1.15,2013-02-02 22:53:00,
2013-02-02 16:58:00,39.6,29.5,30.13,West,277,1.0,4.0,67,0.00,,,0.00,Wunderground v.1.15,2013-02-02 22:58:00,
2013-02-02 17:03:00,39.6,29.9,30.12,West,264,0.0,2.0,68,0.00,,,0.00,Wunderground v.1.15,2013-02-02 23:03:00,
2013-02-02 17:08:00,39.6,29.9,30.13,West,281,2.0,3.0,68,0.00,,,0.00,Wunderground v.1.15,2013-02-02 23:08:00,
2013-02-02 17:13:00,39.6,29.9,30.13,West,276,1.0,3.0,68,0.00,,,0.00,Wunderground v.1.15,2013-02-02 23:13:00,
2013-02-02 17:18:00,39.6,29.9,30.13,WSW,252,1.0,3.0,68,0.00,,,0.00,Wunderground v.1.15,2013-02-02 23:18:00,
2013-02-02 17:23:00,39.6,29.9,30.13,West,273,2.0,3.0,68,0.00,,,0.00,Wunderground v.1.15,2013-02-02 23:23:00,
2013-02-02 17:28:00,39.6,29.9,30.13,West,263,3.0,4.0,68,0.00,,,0.00,Wunderground v.1.15,2013-02-02 23:28:00,
2013-02-02 17:33:00,39.6,29.9,30.14,WNW,288,2.0,4.0,68,0.00,,,0.00,Wunderground v.1.15,2013-02-02 23:33:00,
2013-02-02 17:38:00,39.5,29.8,30.14,WNW,295,2.0,5.0,68,0.00,,,0.00,Wunderground v.1.15,2013-02-02 23:38:00,
2013-02-02 17:43:00,39.5,29.8,30.14,WNW,293,2.0,4.0,68,0.00,,,0.00,Wunderground v.1.15,2013-02-02 23:43:00,
2013-02-02 17:48:00,39.5,29.8,30.14,WNW,297,2.0,6.0,68,0.00,,,0.00,Wunderground v.1.15,2013-02-02 23:48:00,
2013-02-02 17:53:00,39.5,29.4,30.14,West,278,4.0,6.0,67,0.00,,,0.00,Wunderground v.1.15,2013-02-02 23:53:00,
2013-02-02 17:58:00,39.6,29.9,30.14,WNW,284,2.0,6.0,68,0.00,,,0.00,Wunderground v.1.15,2013-02-02 23:58:00,
2013-02-02 18:03:00,39.5,29.8,30.14,WNW,294,3.0,4.0,68,0.00,,,0.00,Wunderground v.1.15,2013-02-03 00:03:00,
2013-02-02 18:08:00,39.5,29.8,30.14,West,280,1.0,5.0,68,0.00,,,0.00,Wunderground v.1.15,2013-02-03 00:08:00,
2013-02-02 18:13:00,39.5,29.8,30.14,West,271,2.0,4.0,68,0.00,,,0.00,Wunderground v.1.15,2013-02-03 00:13:00,
2013-02-02 18:18:00,39.4,29.7,30.15,West,264,2.0,6.0,68,0.00,,,0.00,Wunderground v.1.15,2013-02-03 00:18:00,
2013-02-02 18:23:00,39.3,30.0,30.15,West,266,2.0,4.0,69,0.00,,,0.00,Wunderground v.1.15,2013-02-03 00:23:00,
2013-02-02 18:28:00,39.3,30.0,30.15,WSW,252,2.0,4.0,69,0.00,,,0.00,Wunderground v.1.15,2013-02-03 00:28:00,
2013-02-02 18:33:00,39.3,30.0,30.15,West,266,1.0,4.0,69,0.00,,,0.00,Wunderground v.1.15,2013-02-03 00:33:00,
2013-02-02 18:38:00,39.3,30.0,30.15,NW,305,2.0,4.0,69,0.00,,,0.00,Wunderground v.1.15,2013-02-03 00:38:00,
2013-02-02 18:43:00,39.3,30.0,30.15,SW,225,1.0,3.0,69,0.00,,,0.00,Wunderground v.1.15,2013-02-03 00:43:00,
2013-02-02 18:48:00,39.3,30.0,30.15,WSW,253,4.0,4.0,69,0.00,,,0.00,Wunderground v.1.15,2013-02-03 00:48:00,
2013-02-02 18:53:00,39.3,30.0,30.15,WNW,285,2.0,4.0,69,0.00,,,0.00,Wunderground v.1.15,2013-02-03 00:53:00,
2013-02-02 18:58:00,39.3,30.3,30.15,WNW,283,1.0,4.0,70,0.00,,,0.00,Wunderground v.1.15,2013-02-03 00:58:00,
2013-02-02 19:03:00,39.2,30.2,30.15,West,278,2.0,3.0,70,0.00,,,0.00,Wunderground v.1.15,2013-02-03 01:03:00,
2013-02-02 19:08:00,39.1,30.1,30.15,West,269,2.0,3.0,70,0.00,,,0.00,Wunderground v.1.15,2013-02-03 01:08:00,
2013-02-02 19:13:00,39.1,30.1,30.15,WNW,290,2.0,2.0,70,0.00,,,0.00,Wunderground v.1.15,2013-02-03 01:13:00,
2013-02-02 19:18:00,39.1,30.1,30.15,WSW,256,1.0,2.0,70,0.00,,,0.00,Wunderground v.1.15,2013-02-03 01:18:00,
2013-02-02 19:23:00,39.0,30.0,30.15,WNW,282,1.0,2.0,70,0.00,,,0.00,Wunderground v.1.15,2013-02-03 01:23:00,
2013-02-02 19:28:00,38.9,30.3,30.15,WNW,291,1.0,2.0,71,0.00,,,0.00,Wunderground v.1.15,2013-02-03 01:28:00,
2013-02-02 19:33:00,38.9,30.3,30.16,WNW,283,1.0,2.0,71,0.00,,,0.00,Wunderground v.1.15,2013-02-03 01:33:00,
2013-02-02 19:38:00,38.9,30.3,30.16,West,262,1.0,3.0,71,0.00,,,0.00,Wunderground v.1.15,2013-02-03 01:38:00,
2013-02-02 19:43:00,38.8,30.2,30.16,West,281,1.0,2.0,71,0.00,,,0.00,Wunderground v.1.15,2013-02-03 01:43:00,
2013-02-02 19:48:00,38.8,30.2,30.16,West,271,1.0,3.0,71,0.00,,,0.00,Wunderground v.1.15,2013-02-03 01:48:00,
2013-02-02 19:53:00,38.7,30.1,30.16,WNW,286,3.0,4.0,71,0.00,,,0.00,Wunderground v.1.15,2013-02-03 01:53:00,
2013-02-02 19:58:00,38.6,30.0,30.16,WNW,285,1.0,4.0,71,0.00,,,0.00,Wunderground v.1.15,2013-02-03 01:58:00,
2013-02-02 20:03:00,38.5,30.3,30.16,West,276,1.0,3.0,72,0.00,,,0.00,Wunderground v.1.15,2013-02-03 02:03:00,
2013-02-02 20:08:00,38.3,30.1,30.15,West,267,1.0,3.0,72,0.00,,,0.00,Wunderground v.1.15,2013-02-03 02:08:00,
2013-02-02 20:13:00,38.2,30.0,30.15,West,271,1.0,3.0,72,0.00,,,0.00,Wunderground v.1.15,2013-02-03 02:13:00,
2013-02-02 20:18:00,38.2,30.3,30.15,WNW,285,1.0,4.0,73,0.00,,,0.00,Wunderground v.1.15,2013-02-03 02:18:00,
2013-02-02 20:23:00,38.2,30.3,30.15,WNW,300,1.0,2.0,73,0.00,,,0.00,Wunderground v.1.15,2013-02-03 02:23:00,
2013-02-02 20:28:00,38.1,30.2,30.15,West,278,1.0,2.0,73,0.00,,,0.00,Wunderground v.1.15,2013-02-03 02:28:00,
2013-02-02 20:33:00,38.0,30.1,30.15,WSW,256,1.0,2.0,73,0.00,,,0.00,Wunderground v.1.15,2013-02-03 02:33:00,
2013-02-02 20:38:00,37.8,29.9,30.14,WSW,248,1.0,2.0,73,0.00,,,0.00,Wunderground v.1.15,2013-02-03 02:38:00,
2013-02-02 20:43:00,37.6,30.1,30.14,West,278,1.0,2.0,74,0.00,,,0.00,Wunderground v.1.15,2013-02-03 02:43:00,
2013-02-02 20:48:00,37.4,29.9,30.15,WSW,256,0.0,2.0,74,0.00,,,0.00,Wunderground v.1.15,2013-02-03 02:48:00,
2013-02-02 20:53:00,37.2,30.0,30.15,West,267,1.0,1.0,75,0.00,,,0.00,Wunderground v.1.15,2013-02-03 02:53:00,
2013-02-02 20:58:00,37.0,29.8,30.15,West,270,1.0,1.0,75,0.00,,,0.00,Wunderground v.1.15,2013-02-03 02:58:00,
2013-02-02 21:03:00,36.9,29.7,30.15,West,264,1.0,1.0,75,0.00,,,0.00,Wunderground v.1.15,2013-02-03 03:03:00,
2013-02-02 21:08:00,36.7,29.8,30.15,WNW,285,0.0,2.0,76,0.00,,,0.00,Wunderground v.1.15,2013-02-03 03:08:00,
2013-02-02 21:13:00,36.7,29.8,30.15,West,280,0.0,2.0,76,0.00,,,0.00,Wunderground v.1.15,2013-02-03 03:13:00,
2013-02-02 21:18:00,36.5,29.7,30.15,West,262,0.0,2.0,76,0.00,,,0.00,Wunderground v.1.15,2013-02-03 03:18:00,
2013-02-02 21:23:00,36.4,29.9,30.15,WNW,284,3.0,3.0,77,0.00,,,0.00,Wunderground v.1.15,2013-02-03 03:23:00,
2013-02-02 21:28:00,36.2,29.7,30.15,West,281,0.0,3.0,77,0.00,,,0.00,Wunderground v.1.15,2013-02-03 03:28:00,
2013-02-02 21:33:00,36.2,29.7,30.15,WNW,288,1.0,2.0,77,0.00,,,0.00,Wunderground v.1.15,2013-02-03 03:33:00,
2013-02-02 21:38:00,36.3,29.8,30.15,WNW,283,1.0,2.0,77,0.00,,,0.00,Wunderground v.1.15,2013-02-03 03:38:00,
2013-02-02 21:43:00,36.3,30.1,30.15,WNW,302,2.0,2.0,78,0.00,,,0.00,Wunderground v.1.15,2013-02-03 03:43:00,
2013-02-02 21:48:00,36.3,30.1,30.15,WNW,285,1.0,2.0,78,0.00,,,0.00,Wunderground v.1.15,2013-02-03 03:48:00,
2013-02-02 21:53:00,36.3,30.1,30.15,West,274,0.0,2.0,78,0.00,,,0.00,Wunderground v.1.15,2013-02-03 03:53:00,
2013-02-02 21:58:00,36.3,30.1,30.15,West,274,1.0,2.0,78,0.00,,,0.00,Wunderground v.1.15,2013-02-03 03:58:00,
2013-02-02 22:03:00,36.2,30.0,30.15,WNW,293,2.0,2.0,78,0.00,,,0.00,Wunderground v.1.15,2013-02-03 04:03:00,
2013-02-02 22:08:00,36.1,29.9,30.15,WNW,303,1.0,2.0,78,0.00,,,0.00,Wunderground v.1.15,2013-02-03 04:08:00,
2013-02-02 22:13:00,36.1,29.9,30.15,WNW,290,0.0,1.0,78,0.00,,,0.00,Wunderground v.1.15,2013-02-03 04:13:00,
2013-02-02 22:18:00,36.0,29.8,30.15,West,259,0.0,1.0,78,0.00,,,0.00,Wunderground v.1.15,2013-02-03 04:18:00,
2013-02-02 22:23:00,36.0,29.8,30.15,West,276,0.0,1.0,78,0.00,,,0.00,Wunderground v.1.15,2013-02-03 04:23:00,
2013-02-02 22:28:00,35.9,29.7,30.15,West,275,0.0,1.0,78,0.00,,,0.00,Wunderground v.1.15,2013-02-03 04:28:00,
2013-02-02 22:33:00,35.8,29.6,30.15,West,276,0.0,1.0,78,0.00,,,0.00,Wunderground v.1.15,2013-02-03 04:33:00,
2013-02-02 22:38:00,35.6,29.7,30.15,WSW,252,0.0,1.0,79,0.00,,,0.00,Wunderground v.1.15,2013-02-03 04:38:00,
2013-02-02 22:44:00,35.4,29.5,30.15,WSW,253,0.0,1.0,79,0.00,,,0.00,Wunderground v.1.15,2013-02-03 04:44:00,
2013-02-02 22:49:00,35.3,29.4,30.15,West,264,1.0,1.0,79,0.00,,,0.00,Wunderground v.1.15,2013-02-03 04:49:00,
2013-02-02 22:54:00,35.1,29.2,30.14,WSW,240,0.0,1.0,79,0.00,,,0.00,Wunderground v.1.15,2013-02-03 04:54:00,
2013-02-02 22:59:00,35.1,29.6,30.15,WSW,248,0.0,1.0,80,0.00,,,0.00,Wunderground v.1.15,2013-02-03 04:59:00,
2013-02-02 23:02:00,35.0,29.1,30.14,WSW,252,1.0,1.0,79,0.00,,,0.00,Wunderground v.1.15,2013-02-03 05:02:00,
2013-02-02 23:03:00,35.0,29.1,30.14,WSW,252,0.0,1.0,79,0.00,,,0.00,Wunderground v.1.15,2013-02-03 05:03:00,
2013-02-02 23:08:00,34.8,29.3,30.14,WSW,248,0.0,1.0,80,0.00,,,0.00,Wunderground v.1.15,2013-02-03 05:08:00,
2013-02-02 23:13:00,34.5,29.3,30.14,SW,226,1.0,1.0,81,0.00,,,0.00,Wunderground v.1.15,2013-02-03 05:13:00,
2013-02-02 23:18:00,34.4,29.2,30.14,SW,222,0.0,1.0,81,0.00,,,0.00,Wunderground v.1.15,2013-02-03 05:18:00,
2013-02-02 23:23:00,34.2,29.0,30.13,SW,222,0.0,0.0,81,0.00,,,0.00,Wunderground v.1.15,2013-02-03 05:23:00,
2013-02-02 23:28:00,33.7,28.5,30.13,SW,222,0.0,0.0,81,0.00,,,0.00,Wunderground v.1.15,2013-02-03 05:28:00,
2013-02-02 23:33:00,33.3,28.7,30.13,SW,222,0.0,0.0,83,0.00,,,0.00,Wunderground v.1.15,2013-02-03 05:33:00,
2013-02-02 23:38:00,33.2,28.9,30.12,SW,222,0.0,1.0,84,0.00,,,0.00,Wunderground v.1.15,2013-02-03 05:38:00,
2013-02-02 23:43:00,32.9,28.3,30.12,SW,222,0.0,1.0,83,0.00,,,0.00,Wunderground v.1.15,2013-02-03 05:43:00,
2013-02-02 23:48:00,32.9,28.6,30.12,SW,222,0.0,1.0,84,0.00,,,0.00,Wunderground v.1.15,2013-02-03 05:48:00,
2013-02-02 23:53:00,32.7,28.1,30.12,SW,222,0.0,0.0,83,0.00,,,0.00,Wunderground v.1.15,2013-02-03 05:53:00,
2013-02-02 23:58:00,32.3,28.3,30.12,SW,222,0.0,1.0,85,0.00,,,0.00,Wunderground v.1.15,2013-02-03 05:58:00,